******** Week 147 almanac for PRN-1 ******** ID: 1 Health: 0 Eccentricity: 0.0113363266 Time of Applicability(s): 405504 Orbital Inclination(rad): 0.9865557753 Rate of Right Ascen(r/s): -7.920329913e-09 SQRT(A) (m 1/2): 5153.623535 Right Ascen at Week(rad): -1.662122862 Argument of Perigee(rad): 0.882418329 Mean Anom(rad): 3.012206843 Af0(s): 0.0003481975342 Af1(s/s): -1.091394e-11 week: 147 ******** Week 147 almanac for PRN-2 ******** ID: 2 Health: 0 Eccentricity: 0.02067470551 Time of Applicability(s): 405504 Orbital Inclination(rad): 0.9649122651 Rate of Right Ascen(r/s): -8.000333246e-09 SQRT(A) (m 1/2): 5153.636719 Right Ascen at Week(rad): -1.751180259 Argument of Perigee(rad): -1.447546439 Mean Anom(rad): -3.118728626 Af0(s): -0.0005140058838 Af1(s/s): 0 week: 147 ******** Week 147 almanac for PRN-3 ******** ID: 3 Health: 0 Eccentricity: 0.00386428833 Time of Applicability(s): 405504 Orbital Inclination(rad): 0.9725222479 Rate of Right Ascen(r/s): -8.160339911e-09 SQRT(A) (m 1/2): 5153.635254 Right Ascen at Week(rad): -0.6265105608 Argument of Perigee(rad): 0.9667955115 Mean Anom(rad): 1.850994247 Af0(s): -8.29041748e-05 Af1(s/s): -1.818989e-11 week: 147 ******** Week 147 almanac for PRN-4 ******** ID: 4 Health: 0 Eccentricity: 0.001691818237 Time of Applicability(s): 405504 Orbital Inclination(rad): 0.961442832 Rate of Right Ascen(r/s): -7.691748963e-09 SQRT(A) (m 1/2): 5153.615234 Right Ascen at Week(rad): 0.4543747718 Argument of Perigee(rad): -3.078073267 Mean Anom(rad): -1.473427871 Af0(s): -0.0001514885376 Af1(s/s): 3.637979e-12 week: 147 ******** Week 147 almanac for PRN-5 ******** ID: 5 Health: 0 Eccentricity: 0.005868911743 Time of Applicability(s): 405504 Orbital Inclination(rad): 0.9594894033 Rate of Right Ascen(r/s): -8.297488481e-09 SQRT(A) (m 1/2): 5153.604492 Right Ascen at Week(rad): -0.6667532136 Argument of Perigee(rad): 1.011665199 Mean Anom(rad): -0.6206633826 Af0(s): -5.577189941e-05 Af1(s/s): 0 week: 147 ******** Week 147 almanac for PRN-6 ******** ID: 6 Health: 0 Eccentricity: 0.002666950226 Time of Applicability(s): 405504 Orbital Inclination(rad): 0.9859385877 Rate of Right Ascen(r/s): -7.874613723e-09 SQRT(A) (m 1/2): 5153.616699 Right Ascen at Week(rad): -1.670396472 Argument of Perigee(rad): -0.972976001 Mean Anom(rad): -2.927696711 Af0(s): 0.0001507348633 Af1(s/s): 1.091394e-11 week: 147 ******** Week 147 almanac for PRN-7 ******** ID: 7 Health: 0 Eccentricity: 0.01549482346 Time of Applicability(s): 405504 Orbital Inclination(rad): 0.9506090927 Rate of Right Ascen(r/s): -8.046049436e-09 SQRT(A) (m 1/2): 5153.637695 Right Ascen at Week(rad): 1.473425249 Argument of Perigee(rad): -2.293408013 Mean Anom(rad): 2.346427348 Af0(s): 0.0002426831299 Af1(s/s): 3.637979e-12 week: 147 ******** Week 147 almanac for PRN-8 ******** ID: 8 Health: 0 Eccentricity: 0.00724363327 Time of Applicability(s): 405504 Orbital Inclination(rad): 0.9651699259 Rate of Right Ascen(r/s): -7.691748963e-09 SQRT(A) (m 1/2): 5153.671875 Right Ascen at Week(rad): -2.741650233 Argument of Perigee(rad): 0.09423046244 Mean Anom(rad): -0.9921485138 Af0(s): -4.295943603e-05 Af1(s/s): 0 week: 147 ******** Week 147 almanac for PRN-9 ******** ID: 9 Health: 0 Eccentricity: 0.002288341522 Time of Applicability(s): 405504 Orbital Inclination(rad): 0.9544560289 Rate of Right Ascen(r/s): -7.783181343e-09 SQRT(A) (m 1/2): 5153.584961 Right Ascen at Week(rad): 0.4015322046 Argument of Perigee(rad): 1.871337094 Mean Anom(rad): -0.6473908257 Af0(s): -0.00028112052 Af1(s/s): 0 week: 147 ******** Week 147 almanac for PRN-10 ******** ID: 10 Health: 0 Eccentricity: 0.007496833801 Time of Applicability(s): 405504 Orbital Inclination(rad): 0.9723484767 Rate of Right Ascen(r/s): -8.126052768e-09 SQRT(A) (m 1/2): 5153.627441 Right Ascen at Week(rad): -0.6293040088 Argument of Perigee(rad): -2.52189213 Mean Anom(rad): 0.9884341531 Af0(s): -0.0002456978271 Af1(s/s): -1.091394e-11 week: 147 ******** Week 147 almanac for PRN-11 ******** ID: 11 Health: 255 Eccentricity: 0.0002846717834 Time of Applicability(s): 405504 Orbital Inclination(rad): 0.9616525559 Rate of Right Ascen(r/s): -8.171768958e-09 SQRT(A) (m 1/2): 5153.714844 Right Ascen at Week(rad): -1.618057991 Argument of Perigee(rad): 2.840104385 Mean Anom(rad): -1.113302661 Af0(s): -8.591887207e-05 Af1(s/s): -4.001777e-11 week: 147 ******** Week 147 almanac for PRN-12 ******** ID: 12 Health: 0 Eccentricity: 0.008651733398 Time of Applicability(s): 405504 Orbital Inclination(rad): 0.9704609612 Rate of Right Ascen(r/s): -7.966046103e-09 SQRT(A) (m 1/2): 5153.550781 Right Ascen at Week(rad): 2.586319697 Argument of Perigee(rad): 1.241865681 Mean Anom(rad): 1.689703058 Af0(s): -0.0001311393311 Af1(s/s): -7.275958e-12 week: 147 ******** Week 147 almanac for PRN-13 ******** ID: 13 Health: 0 Eccentricity: 0.005796432495 Time of Applicability(s): 405504 Orbital Inclination(rad): 0.9688430909 Rate of Right Ascen(r/s): -7.611745631e-09 SQRT(A) (m 1/2): 5153.635254 Right Ascen at Week(rad): 0.554133707 Argument of Perigee(rad): 0.9644612092 Mean Anom(rad): -1.581663398 Af0(s): 0.0002019847168 Af1(s/s): 7.275958e-12 week: 147 ******** Week 147 almanac for PRN-14 ******** ID: 14 Health: 0 Eccentricity: 0.00138759613 Time of Applicability(s): 405504 Orbital Inclination(rad): 0.9538508255 Rate of Right Ascen(r/s): -8.126052768e-09 SQRT(A) (m 1/2): 5153.585449 Right Ascen at Week(rad): 2.555218012 Argument of Perigee(rad): 3.02659428 Mean Anom(rad): 1.744793416 Af0(s): -6.255496826e-05 Af1(s/s): -3.637979e-12 week: 147 ******** Week 147 almanac for PRN-15 ******** ID: 15 Health: 0 Eccentricity: 0.01392269135 Time of Applicability(s): 405504 Orbital Inclination(rad): 0.9303317841 Rate of Right Ascen(r/s): -8.034620388e-09 SQRT(A) (m 1/2): 5153.68457 Right Ascen at Week(rad): 0.2958347115 Argument of Perigee(rad): 1.073986164 Mean Anom(rad): -1.996163283 Af0(s): -6.858436279e-05 Af1(s/s): 3.637979e-12 week: 147 ******** Week 147 almanac for PRN-16 ******** ID: 16 Health: 0 Eccentricity: 0.01272964478 Time of Applicability(s): 405504 Orbital Inclination(rad): 0.9704310007 Rate of Right Ascen(r/s): -7.931758961e-09 SQRT(A) (m 1/2): 5153.541016 Right Ascen at Week(rad): 2.604938689 Argument of Perigee(rad): 0.7035436605 Mean Anom(rad): -0.1652950436 Af0(s): -0.0003670393921 Af1(s/s): -3.637979e-12 week: 147 ******** Week 147 almanac for PRN-17 ******** ID: 17 Health: 0 Eccentricity: 0.01365232468 Time of Applicability(s): 405504 Orbital Inclination(rad): 0.980252073 Rate of Right Ascen(r/s): -7.543171346e-09 SQRT(A) (m 1/2): 5153.712891 Right Ascen at Week(rad): -2.659972871 Argument of Perigee(rad): -1.501451483 Mean Anom(rad): -1.086838122 Af0(s): 0.0004506972412 Af1(s/s): 3.637979e-12 week: 147 ******** Week 147 almanac for PRN-18 ******** ID: 18 Health: 0 Eccentricity: 0.002095222473 Time of Applicability(s): 405504 Orbital Inclination(rad): 0.970341119 Rate of Right Ascen(r/s): -8.057478483e-09 SQRT(A) (m 1/2): 5153.57373 Right Ascen at Week(rad): -1.654125639 Argument of Perigee(rad): 3.104987963 Mean Anom(rad): -3.0720085 Af0(s): 0.0001959553223 Af1(s/s): -7.275958e-12 week: 147 ******** Week 147 almanac for PRN-19 ******** ID: 19 Health: 0 Eccentricity: 0.008947849274 Time of Applicability(s): 405504 Orbital Inclination(rad): 0.978975753 Rate of Right Ascen(r/s): -7.554600394e-09 SQRT(A) (m 1/2): 5153.643555 Right Ascen at Week(rad): -2.615098316 Argument of Perigee(rad): 2.003677766 Mean Anom(rad): 1.320190455 Af0(s): 9.044091797e-05 Af1(s/s): 3.637979e-12 week: 147 ******** Week 147 almanac for PRN-20 ******** ID: 20 Health: 0 Eccentricity: 0.005220890045 Time of Applicability(s): 405504 Orbital Inclination(rad): 0.9416149319 Rate of Right Ascen(r/s): -8.503211336e-09 SQRT(A) (m 1/2): 5153.679199 Right Ascen at Week(rad): -0.7805722662 Argument of Perigee(rad): 3.122792402 Mean Anom(rad): -2.239030342 Af0(s): 0.0004084914795 Af1(s/s): 0 week: 147 ******** Week 147 almanac for PRN-21 ******** ID: 21 Health: 0 Eccentricity: 0.02457380295 Time of Applicability(s): 405504 Orbital Inclination(rad): 0.9591598371 Rate of Right Ascen(r/s): -8.023191341e-09 SQRT(A) (m 1/2): 5153.537109 Right Ascen at Week(rad): -1.75273671 Argument of Perigee(rad): -1.012685356 Mean Anom(rad): -0.910709339 Af0(s): 0.0001243562622 Af1(s/s): 0 week: 147 ******** Week 147 almanac for PRN-22 ******** ID: 22 Health: 0 Eccentricity: 0.01283407211 Time of Applicability(s): 405504 Orbital Inclination(rad): 0.9615746585 Rate of Right Ascen(r/s): -7.691748963e-09 SQRT(A) (m 1/2): 5153.611328 Right Ascen at Week(rad): 0.5026663296 Argument of Perigee(rad): -1.875521461 Mean Anom(rad): -1.219694865 Af0(s): 0.000164301001 Af1(s/s): 7.275958e-12 week: 147 ******** Week 147 almanac for PRN-23 ******** ID: 23 Health: 0 Eccentricity: 0.001979827881 Time of Applicability(s): 405504 Orbital Inclination(rad): 0.9673810154 Rate of Right Ascen(r/s): -8.206056101e-09 SQRT(A) (m 1/2): 5153.647461 Right Ascen at Week(rad): -0.6540986211 Argument of Perigee(rad): 2.950165634 Mean Anom(rad): 2.313270368 Af0(s): 3.768371582e-06 Af1(s/s): -3.637979e-12 week: 147 ******** Week 147 almanac for PRN-24 ******** ID: 24 Health: 0 Eccentricity: 0.01231908798 Time of Applicability(s): 405504 Orbital Inclination(rad): 0.9341247913 Rate of Right Ascen(r/s): -8.228914196e-09 SQRT(A) (m 1/2): 5153.635742 Right Ascen at Week(rad): 1.390840083 Argument of Perigee(rad): 0.8059065431 Mean Anom(rad): -2.971465722 Af0(s): 0.0002178118774 Af1(s/s): 0 week: 147 ******** Week 147 almanac for PRN-25 ******** ID: 25 Health: 0 Eccentricity: 0.01046419144 Time of Applicability(s): 405504 Orbital Inclination(rad): 0.9578355803 Rate of Right Ascen(r/s): -8.126052768e-09 SQRT(A) (m 1/2): 5153.654785 Right Ascen at Week(rad): 2.509750986 Argument of Perigee(rad): 0.9768345469 Mean Anom(rad): 1.443495771 Af0(s): 0.000221580249 Af1(s/s): 7.275958e-12 week: 147 ******** Week 147 almanac for PRN-26 ******** ID: 26 Health: 0 Eccentricity: 0.006852149963 Time of Applicability(s): 405504 Orbital Inclination(rad): 0.9386428441 Rate of Right Ascen(r/s): -8.320346576e-09 SQRT(A) (m 1/2): 5153.62793 Right Ascen at Week(rad): 2.462978804 Argument of Perigee(rad): 0.3623700047 Mean Anom(rad): 0.7920048422 Af0(s): 0.0001424444458 Af1(s/s): 3.637979e-12 week: 147 ******** Week 147 almanac for PRN-27 ******** ID: 27 Health: 0 Eccentricity: 0.01015472412 Time of Applicability(s): 405504 Orbital Inclination(rad): 0.973858489 Rate of Right Ascen(r/s): -7.623174678e-09 SQRT(A) (m 1/2): 5153.608887 Right Ascen at Week(rad): -2.722331288 Argument of Perigee(rad): 0.6337568973 Mean Anom(rad): -1.045965548 Af0(s): 8.064315185e-05 Af1(s/s): 1.818989e-11 week: 147 ******** Week 147 almanac for PRN-29 ******** ID: 29 Health: 0 Eccentricity: 0.001799583435 Time of Applicability(s): 405504 Orbital Inclination(rad): 0.9822474464 Rate of Right Ascen(r/s): -7.508884204e-09 SQRT(A) (m 1/2): 5153.718262 Right Ascen at Week(rad): -2.646991334 Argument of Perigee(rad): 2.268489814 Mean Anom(rad): -0.9283939354 Af0(s): -0.0003760834839 Af1(s/s): -3.637979e-12 week: 147 ******** Week 147 almanac for PRN-30 ******** ID: 30 Health: 0 Eccentricity: 0.00547504425 Time of Applicability(s): 405504 Orbital Inclination(rad): 0.9357726222 Rate of Right Ascen(r/s): -8.206056101e-09 SQRT(A) (m 1/2): 5153.521484 Right Ascen at Week(rad): 1.486742719 Argument of Perigee(rad): -2.749317515 Mean Anom(rad): 2.376031379 Af0(s): -0.0004039694336 Af1(s/s): -3.637979e-12 week: 147 ******** Week 147 almanac for PRN-31 ******** ID: 31 Health: 0 Eccentricity: 0.01045751572 Time of Applicability(s): 405504 Orbital Inclination(rad): 0.954833532 Rate of Right Ascen(r/s): -8.011762293e-09 SQRT(A) (m 1/2): 5153.625 Right Ascen at Week(rad): 1.491477237 Argument of Perigee(rad): 0.3730097493 Mean Anom(rad): 1.89345136 Af0(s): -0.0001288783081 Af1(s/s): -3.637979e-12 week: 147 ******** Week 147 almanac for PRN-32 ******** ID: 32 Health: 0 Eccentricity: 0.005523681641 Time of Applicability(s): 405504 Orbital Inclination(rad): 0.9583089572 Rate of Right Ascen(r/s): -7.748894201e-09 SQRT(A) (m 1/2): 5153.728516 Right Ascen at Week(rad): 0.4126786573 Argument of Perigee(rad): -2.363405249 Mean Anom(rad): -0.3862661746 Af0(s): -4.823515625e-05 Af1(s/s): -7.275958e-12 week: 147